Reflectivity
-20 -20 -20 -20 -20 13 -13 7 -20 -20 -20 -20 -20 -20 -20 -8 -20 -20 -20 -20 -20 -20 -20 2 3 6 -20 -7 -11 -20 -20 -20 -20 -20 -20 -20 -20 -20 -20 -20 -20 -20 -20 -20 -20 -20 -20
13 -20 -20 -20 -20 5 -20 -20 15 -20 -4 -17 -20 -20 -20 -20 -20 -20 -20 -20 -20 -16 -15 -20 -20 -8 -2 -20 -20 -20 -20 -20 -20 -20 -20 -20 -17 -20 -20 -20 -20 -12 -20 -20 -20 -20 -20
-0 26 -20 -20 -20 -11 -5 -20 15 7 14 -20 -2 -20 -20 -20 -20 -20 -20 -20 2 -20 -20 -20 -20 -20 -20 -20 -20 -20 -20 -20 -20 -20 -20 13 12 -20 4 -20 -20 -20 -20 -14 -20 -20 -20
1 -6 31 -18 -20 -20 13 -20 -18 6 17 11 -18 7 -20 -20 -20 -20 -20 -20 -20 -3 -20 -15 -20 9 -16 -20 -20 -20 -20 -20 -20 -20 -20 -20 -16 -20 8 -20 -20 -7 11 10 -20 -20 -20
-20 -8 9 28 4 -20 -20 -20 -18 8 16 18 7 -8 -20 -20 -20 -1 -20 -20 -20 -20 -20 -5 -2 -8 -20 -20 -20 -20 -20 -20 -20 -20 -20 -20 -20 -6 -19 -12 5 -9 2 12 -12 -20 -20
-20 -20 -3 14 7 7 -20 -20 -11 -4 9 12 14 -2 -20 -20 -20 4 -11 -20 -20 15 -20 -14 -18 13 -20 -20 -20 -20 -20 -20 -20 -20 -20 -20 -20 -20 -20 -1 5 2 6 -16 -18 -20 -7
-19 -20 -8 3 21 22 19 17 -17 4 -20 -20 16 19 6 -20 -20 7 -20 -20 -20 -20 -1 -20 -20 -20 -20 -20 -20 -20 -20 -20 -20 -20 -20 -20 6 6 -20 -20 -20 -20 0 12 -16 -20 18
14 5 -6 13 15 25 23 -3 -19 -20 10 -16 -1 14 14 -20 -20 -20 -20 -14 -20 -20 -20 -20 -20 -20 -20 -20 -20 -20 -20 -20 -10 -20 -20 -15 -13 -20 -20 -20 -20 -20 -20 -19 -4 -20 25
-20 10 11 5 14 0 33 20 17 -5 -20 -14 7 16 7 -18 2 12 -20 -20 -20 -20 -17 -19 -20 -20 -20 -20 -13 -16 -20 -20 -20 0 -20 -20 -20 -20 -20 -20 -15 -20 -20 -20 -20 -20 -20
6 -3 10 14 -4 9 13 35 25 19 21 13 22 10 1 -12 -19 -20 0 -20 -20 1 7 0 -20 -11 5 -6 17 -15 -20 -20 7 -18 -20 -20 -20 -20 -12 -20 -20 -20 -20 -20 -20 -2 8
12 17 9 11 24 6 22 34 36 22 19 26 20 19 -20 -20 -20 -20 -20 -20 -19 -9 -20 -20 -20 -20 2 -3 -1 -20 -16 21 9 -20 11 -18 -20 -20 -20 -20 -20 -20 -20 -20 10 10 27
10 2 9 20 4 11 16 -7 29 30 26 26 -1 13 -4 -20 -20 -20 -20 -20 -6 -20 -20 -20 -10 -20 1 6 3 3 -4 13 17 25 30 -10 -20 -13 -20 -20 -12 -20 -12 -17 16 9 15
-20 -2 20 17 -11 11 24 -18 18 33 22 27 9 15 -1 -20 -20 -20 -20 -20 -9 -14 -20 -20 -11 -6 -15 -5 4 8 5 24 32 26 11 -1 -20 -20 -20 -20 -20 11 12 15 5 11 0
-14 11 19 21 0 32 27 16 30 36 24 29 7 29 -0 -20 -20 -20 -20 8 -10 -20 -20 -20 -19 -20 2 -17 9 5 18 33 24 30 9 3 -20 -20 -20 -20 -20 -20 6 12 -19 -20 -15
13 16 23 20 3 33 13 21 21 40 25 25 41 22 -19 -15 -15 -20 -20 -17 -20 -20 -20 -18 -0 28 23 6 -5 11 2 33 -14 -16 -20 -12 -17 -13 -20 -20 -20 -20 13 -20 -20 -14 17
6 -10 16 16 16 17 24 21 19 38 30 38 25 25 15 -2 13 -13 -0 -20 -20 -20 -20 -9 25 16 -20 -9 10 15 -11 -19 -20 -20 -20 -17 2 22 22 2 11 1 -20 14 21 21 -0
-17 -20 -14 24 28 28 33 33 29 36 30 37 6 14 27 29 29 28 4 -20 -20 -20 -14 15 20 17 -20 -20 -20 -19 -20 -20 -20 -20 15 -19 2 26 34 -6 -20 16 31 8 21 29 33
-19 -20 -20 20 24 36 32 32 37 30 34 36 40 2 32 26 28 24 2 -20 -14 -18 -4 24 29 10 -20 -20 -20 -20 -20 -19 -11 -20 -6 -7 19 20 15 -12 3 7 34 10 8 12 34
-20 -18 -20 15 20 34 37 38 26 8 28 44 30 32 23 19 25 8 -1 2 -10 4 13 22 26 5 8 -15 -0 -20 -20 -20 -20 -16 -15 -0 15 17 18 34 29 23 15 7 16 29 39
6 -20 -20 -12 14 36 34 27 26 17 28 44 29 17 29 35 1 -11 -3 1 3 -20 -1 27 21 8 15 -20 -20 -20 -20 0 -4 1 9 18 31 32 12 15 -5 6 1 22 31 43 17
15 -8 -20 -20 16 24 23 30 20 44 36 35 11 22 7 25 9 8 3 11 0 12 9 28 18 -14 -13 -20 -20 -20 -20 -20 -10 9 9 16 30 34 28 -3 19 16 22 38 43 26 -10
-20 -20 -20 -20 13 14 25 12 33 28 42 17 -20 24 -13 0 -20 -20 -17 8 9 9 16 1 20 -20 9 -20 -20 -20 -20 -20 -20 2 8 23 32 39 17 7 23 30 31 21 28 13 10
-9 -4 4 7 -0 8 25 35 35 36 37 28 -18 -20 -3 -16 -17 -9 -15 -20 -20 -18 11 -19 2 12 9 -12 1 -20 -20 -20 -19 -5 3 18 31 29 32 17 20 20 -20 -20 -19 -10 -20
10 -20 -7 3 9 10 18 24 28 32 34 31 -2 30 28 9 -14 11 1 12 8 11 -0 -3 12 14 3 -17 22 -13 -10 -20 10 2 -20 -18 3 9 -8 -2 -12 -20 -20 -20 -20 -20 -20
10 4 -18 -20 8 17 18 18 29 33 23 17 -20 3 9 21 4 30 25 -20 -20 -20 13 12 17 -14 18 24 16 34 23 8 -9 8 -20 -20 -20 -20 -20 -20 -20 -20 -20 -20 -20 -20 -20
-20 8 -20 -6 11 15 -1 28 35 32 35 28 2 15 17 14 1 -14 20 -20 -20 -18 22 23 22 20 32 25 3 32 16 -11 -12 6 -20 -20 -20 -18 -20 -20 -20 -20 -20 -20 -20 -20 -20
19 -20 -20 -5 13 10 9 17 36 8 20 14 20 -11 14 15 -5 -10 14 -5 -20 11 29 31 26 24 19 -4 15 11 -9 -20 -20 -17 -20 -2 -9 -19 -20 -20 -20 -20 -20 -20 -20 -20 -20
17 -1 -3 -16 12 15 13 16 33 28 25 20 -1 -6 -4 2 3 -8 4 -5 -14 18 31 28 28 24 19 15 34 15 -20 -20 -20 -20 -20 -1 -8 -0 5 -9 -20 -20 -20 -20 -20 -20 -20
-16 1 -20 -19 15 10 16 14 24 29 20 20 9 -0 -6 6 2 -1 -6 -17 1 22 30 24 27 17 1 -19 -17 3 -20 -20 -20 -20 -20 -20 -20 -20 -20 -19 -20 -20 -20 -20 -20 -20 -20
Wind_Speed
17 14 16 17 18 13 13 12 10 13 13 11 9 9 8 7 6 5 5 4 5 2 2 3 3 2 2 5 7 5 6 5 5 5 7 9 6 3 5 4 5 13 15 14 17 18 20
19 17 16 16 16 15 14 13 10 11 14 13 12 10 9 8 6 5 5 6 5 5 2 1 1 2 0 11 6 8 6 3 4 8 7 8 7 6 7 6 10 6 10 19 20 18 19
25 22 17 17 17 17 14 13 13 13 13 13 15 12 9 9 7 7 6 7 7 7 5 4 2 3 5 12 7 9 11 7 2 2 1 12 11 4 5 5 5 9 14 16 18 21 15
27 25 24 18 17 17 15 13 14 14 13 13 15 12 10 9 8 7 6 5 7 5 4 4 3 3 7 3 12 14 12 2 2 3 6 8 2 3 4 5 6 4 5 15 11 10 11
28 29 26 24 18 17 16 16 14 14 14 14 13 13 11 10 8 7 5 2 4 5 2 3 2 3 8 2 8 6 7 3 3 4 6 9 3 4 4 3 5 4 9 8 6 7 7
27 29 28 25 25 20 18 16 15 16 16 16 15 14 12 9 8 8 6 4 2 3 2 3 3 1 5 4 4 7 5 6 4 4 4 4 4 5 2 4 12 8 6 11 8 6 12
28 28 27 28 29 22 20 17 16 16 17 17 16 15 13 10 8 10 8 4 3 0 5 10 8 4 4 6 2 5 7 3 4 0 4 6 6 11 11 9 11 8 16 13 10 9 13
27 28 28 28 27 24 24 19 18 17 16 16 17 16 15 12 10 13 4 4 2 3 5 16 16 15 11 3 4 7 7 9 9 15 4 7 18 11 10 12 10 14 16 21 15 15 7
28 27 28 30 28 28 28 20 19 17 16 15 15 16 17 13 10 7 5 5 6 4 4 6 16 13 15 10 12 9 13 10 9 9 12 17 5 15 12 13 14 16 17 16 17 14 15
30 30 29 30 28 28 21 20 17 19 17 15 16 18 18 14 5 5 5 9 6 5 4 4 4 5 7 3 7 16 18 11 7 16 12 15 13 16 12 18 14 18 16 15 16 10 11
29 31 30 31 29 27 18 19 17 18 19 15 19 20 21 16 5 6 3 12 8 2 5 6 5 2 2 9 8 7 13 16 15 10 10 9 7 15 18 24 16 16 13 12 11 12 15
28 31 32 30 30 28 21 16 17 20 19 19 21 22 22 10 3 4 10 11 4 3 10 6 5 4 3 10 6 1 7 9 1 13 14 15 3 4 15 15 16 3 2 8 6 5 13
29 31 32 30 30 31 18 17 21 21 20 22 22 24 18 9 6 9 10 5 3 5 2 6 5 6 8 9 12 8 5 13 6 6 7 5 15 5 3 2 6 4 3 4 5 7 10
30 32 32 30 27 25 27 17 24 26 21 25 25 23 13 6 15 13 4 3 7 6 6 3 3 8 8 8 10 12 3 8 13 6 1 7 6 13 10 11 8 9 15 7 8 7 7
28 31 31 31 28 33 22 20 25 25 15 26 25 9 6 9 14 9 5 4 7 6 3 6 5 6 5 7 5 10 12 5 8 16 7 5 9 4 15 12 13 7 14 18 5 5 3
29 31 30 31 32 37 16 18 22 27 14 29 9 9 8 16 14 8 3 6 6 1 6 5 9 10 7 7 9 9 8 10 9 15 16 3 7 3 9 10 11 11 11 12 6 6 6
29 30 30 31 31 35 16 16 21 22 11 26 8 7 11 16 7 5 4 7 4 6 8 7 7 4 5 7 10 7 7 7 13 11 18 10 6 7 2 13 17 13 8 8 4 8 2
29 29 31 31 28 32 23 19 23 27 19 14 4 6 13 14 7 4 5 6 4 3 4 11 6 7 6 10 10 6 11 7 8 6 15 7 4 6 18 9 13 17 15 11 7 7 9
28 29 31 30 30 31 22 25 28 22 13 6 7 4 10 11 7 5 5 9 8 6 6 7 9 12 9 9 5 14 8 10 14 10 14 10 5 5 6 7 5 15 13 9 8 5 13
28 28 30 30 30 32 28 24 27 30 19 3 4 6 5 4 0 10 8 8 10 5 13 9 4 5 8 5 11 6 13 6 11 13 21 12 5 6 5 4 5 7 21 12 10 7 6
27 27 29 29 30 31 26 29 25 28 20 4 2 2 6 9 8 5 10 4 9 6 10 4 5 12 5 5 5 6 5 2 4 17 6 6 6 3 17 21 17 13 16 17 19 20 8
25 26 27 28 29 30 31 28 24 31 14 3 5 4 2 6 11 14 8 5 5 4 5 3 6 7 11 8 6 3 7 4 4 9 5 4 4 5 7 7 14 16 21 19 10 2 7
25 25 26 27 29 29 29 24 21 25 23 2 2 2 2 5 8 7 7 12 12 11 9 13 11 7 10 15 9 1 4 4 6 10 7 9 3 6 5 12 13 3 10 7 3 1 4
24 24 25 25 27 29 28 24 22 23 24 5 3 3 3 3 3 7 3 11 14 14 11 6 9 12 6 1 5 2 4 6 3 4 8 7 5 3 5 6 2 4 1 6 8 4 3
25 23 25 24 26 27 26 24 23 19 25 2 1 3 3 3 6 8 8 6 3 1 3 11 13 5 8 2 3 2 2 1 4 4 2 3 5 2 2 2 5 4 4 3 7 5 1
24 22 24 24 25 27 27 25 23 20 22 6 2 2 3 3 4 4 3 1 1 3 4 4 1 3 3 3 3 4 3 3 3 2 4 5 3 3 3 1 1 3 4 4 1 1 3
24 23 23 24 24 26 26 23 20 21 21 7 1 2 3 3 3 3 3 2 2 1 3 2 4 1 2 2 1 4 4 6 6 6 5 5 3 5 2 2 7 4 3 4 4 5 3
23 21 21 23 23 24 25 23 20 21 16 7 1 3 3 2 2 3 4 3 1 3 3 1 3 1 2 5 5 3 3 5 4 4 7 8 5 4 3 2 7 5 2 4 4 1 5
22 22 21 22 22 24 23 22 20 20 16 13 2 1 3 1 1 0 2 3 4 5 0 2 2 5 4 3 3 3 2 4 6 4 3 5 7 7 7 6 2 2 2 2 4 6 4
Wind_Direction
292 287 290 294 299 277 281 276 260 234 236 242 238 245 252 263 269 279 286 299 304 298 339 346 355 111 128 234 243 209 159 140 126 151 201 210 248 231 235 253 264 248 243 242 233 239 259
283 288 286 286 288 281 273 275 253 227 232 236 233 234 244 247 253 258 278 272 278 286 310 297 354 75 95 242 246 211 229 266 167 158 191 221 226 223 274 230 246 291 270 246 246 238 247
345 300 279 281 282 286 268 266 252 238 227 232 229 224 228 238 236 251 268 276 261 263 263 255 271 180 239 231 288 346 205 208 144 46 268 215 235 210 337 323 326 265 258 263 253 243 249
332 328 314 275 277 278 276 265 253 239 233 227 228 220 218 224 233 236 270 286 291 256 259 239 265 217 247 212 247 275 296 291 66 264 254 258 245 285 201 292 321 281 270 241 244 256 248
331 333 332 322 275 271 270 265 248 232 233 226 220 217 213 217 215 209 206 261 278 234 219 192 196 186 263 145 236 250 233 236 240 232 240 258 281 219 308 176 263 251 263 270 274 238 253
326 325 328 322 306 269 265 264 250 234 230 219 215 211 204 207 194 188 143 118 82 140 209 198 257 296 264 226 216 214 236 227 229 343 333 211 213 214 188 203 234 246 230 258 246 230 242
333 327 323 322 319 272 267 260 250 238 232 223 209 205 196 188 190 156 130 101 63 228 223 193 194 205 254 192 193 193 205 227 232 14 216 258 211 216 217 229 253 278 283 278 266 241 225
332 329 321 321 318 312 285 258 247 240 228 218 212 193 191 183 180 164 163 173 189 117 266 230 248 226 248 102 228 212 161 191 198 219 201 273 245 216 217 221 225 241 261 268 277 277 230
333 329 328 324 317 309 319 259 253 236 221 212 197 178 174 173 168 150 187 172 143 96 272 218 232 234 221 215 227 208 174 201 197 207 202 224 146 209 217 226 231 230 231 250 254 298 297
336 331 331 329 317 318 305 324 277 249 224 212 186 172 162 145 127 161 196 180 133 97 281 215 233 264 197 171 249 210 190 174 216 205 205 242 233 248 229 229 221 240 235 255 260 260 258
336 330 330 327 320 314 300 322 322 290 233 191 175 165 157 155 153 168 156 122 128 115 306 146 168 264 166 182 134 213 195 212 205 191 182 220 162 207 225 235 211 254 240 262 254 253 268
333 331 326 329 331 316 294 315 315 319 251 186 165 165 161 181 66 138 133 120 113 114 250 172 143 189 169 197 227 131 185 200 232 234 233 244 285 213 235 244 231 198 346 292 242 276 256
335 330 327 331 334 326 297 310 292 327 274 171 166 164 160 152 156 157 134 100 143 204 166 181 187 185 210 195 216 204 195 202 186 193 212 242 253 255 101 260 236 145 204 230 226 215 243
336 328 328 330 336 322 311 318 316 335 264 171 165 159 174 165 140 148 132 125 207 205 214 126 166 195 198 192 212 213 183 210 214 229 23 196 268 195 180 205 196 188 195 214 207 207 221
333 328 327 335 335 330 318 300 307 320 243 167 153 144 166 154 152 155 142 196 208 202 82 153 161 203 197 216 213 204 215 211 218 196 185 201 238 282 192 171 186 185 202 216 329 276 207
327 325 332 338 337 327 315 315 318 302 224 159 152 155 172 158 160 160 166 226 223 201 119 161 205 192 196 196 191 190 188 194 211 198 195 179 278 203 247 177 215 214 161 196 172 247 183
328 334 330 336 341 326 303 298 305 301 217 166 141 153 149 152 154 180 209 209 252 207 150 198 205 216 244 176 187 195 217 246 204 192 187 169 209 168 255 196 184 185 210 201 182 233 299
335 334 330 334 339 332 333 328 291 296 279 155 128 147 155 148 177 194 211 183 245 206 211 224 228 242 249 177 190 227 215 220 213 169 181 172 204 224 237 249 194 194 221 181 185 195 228
333 333 333 333 341 333 337 322 330 343 203 119 134 110 159 158 186 195 208 226 240 219 216 202 211 220 208 156 210 210 206 231 229 153 156 165 230 253 172 185 209 196 196 209 206 108 252
330 334 334 331 338 336 340 336 342 338 153 115 145 135 137 189 224 196 208 225 224 205 241 247 242 277 253 251 198 197 227 255 169 169 135 152 238 251 281 336 155 177 187 184 209 238 221
327 334 333 330 335 337 350 343 344 337 194 127 134 148 143 174 210 214 195 205 213 212 213 223 231 219 239 250 204 190 206 241 170 140 87 103 284 290 269 250 253 175 181 195 220 237 118
329 331 334 328 335 341 344 344 345 338 291 101 127 156 150 165 188 201 212 179 230 187 217 229 211 208 215 237 207 225 177 171 194 158 119 120 270 278 277 176 187 178 200 208 233 118 107
328 332 332 333 334 338 339 342 339 340 339 136 95 14 140 153 167 179 204 215 217 217 215 225 245 243 221 247 250 321 339 244 190 165 151 148 237 300 340 163 167 231 195 180 185 297 112
326 330 331 331 332 335 336 342 337 334 333 269 145 141 115 148 171 213 246 212 224 216 219 194 224 233 241 173 121 41 26 326 119 92 147 178 201 261 310 14 55 237 345 202 174 203 168
325 331 331 331 331 333 334 339 331 329 334 311 168 117 127 155 195 227 277 247 56 168 242 269 250 224 172 237 99 165 339 348 43 75 39 169 157 304 30 297 271 353 14 109 159 251 107
324 328 331 331 331 335 337 334 331 322 328 306 144 86 104 113 209 133 282 246 137 336 250 231 90 286 141 178 126 172 167 150 261 89 265 156 109 73 356 31 122 266 326 331 37 284 42
325 327 329 329 331 336 332 332 329 330 324 315 138 160 106 154 254 149 251 252 150 11 271 299 155 100 337 113 214 164 176 159 167 186 172 145 173 178 266 304 292 254 296 315 108 235 326
325 325 329 329 331 333 332 333 329 326 329 330 114 194 134 169 226 167 170 159 170 164 240 147 123 172 143 155 210 213 147 194 153 173 182 176 149 164 162 220 282 172 55 156 188 57 95
323 327 328 328 327 331 331 333 335 330 329 323 122 161 105 146 266 8 258 230 191 159 147 205 325 192 172 144 218 149 176 150 146 194 217 184 186 166 182 207 211 107 112 106 139 126 112